TimeMDT,TemperatureF,Dew PointF,Humidity,Sea Level PressureIn,VisibilityMPH,Wind Direction,Wind SpeedMPH,Gust SpeedMPH,PrecipitationIn,Events,Conditions,WindDirDegrees,DateUTC
12:53 AM,45.0,33.1,63,30.09,10.0,North,4.6,-,N/A,,Clear,360,2013-05-15 06:53:00
1:53 AM,41.0,34.0,76,30.10,10.0,Calm,Calm,-,N/A,,Clear,0,2013-05-15 07:53:00
2:53 AM,39.9,34.0,79,30.09,10.0,Calm,Calm,-,N/A,,Clear,0,2013-05-15 08:53:00
3:53 AM,37.9,32.0,79,30.10,10.0,North,3.5,-,N/A,,Clear,10,2013-05-15 09:53:00
4:53 AM,37.0,30.9,79,30.11,10.0,NNW,5.8,-,N/A,,Clear,340,2013-05-15 10:53:00
5:53 AM,36.0,30.9,82,30.11,10.0,Calm,Calm,-,N/A,,Clear,0,2013-05-15 11:53:00
6:53 AM,35.1,30.0,82,30.13,10.0,Calm,Calm,-,N/A,,Clear,0,2013-05-15 12:53:00
7:53 AM,41.0,35.1,79,30.12,10.0,Calm,Calm,-,N/A,,Clear,0,2013-05-15 13:53:00
8:53 AM,44.1,35.1,71,30.11,10.0,South,3.5,-,N/A,,Clear,170,2013-05-15 14:53:00
9:53 AM,48.0,34.0,58,30.09,10.0,Calm,Calm,-,N/A,,Clear,0,2013-05-15 15:53:00
10:53 AM,51.1,35.1,54,30.07,10.0,Calm,Calm,-,N/A,,Clear,0,2013-05-15 16:53:00
11:53 AM,55.0,35.1,47,30.05,10.0,SW,3.5,-,N/A,,Clear,230,2013-05-15 17:53:00
12:53 PM,60.1,35.1,39,30.02,10.0,West,5.8,-,N/A,,Clear,260,2013-05-15 18:53:00
1:53 PM,63.0,33.1,33,29.99,10.0,NW,4.6,-,N/A,,Clear,320,2013-05-15 19:53:00
2:53 PM,64.0,34.0,33,29.97,10.0,NW,5.8,-,N/A,,Clear,320,2013-05-15 20:53:00
3:53 PM,64.9,35.1,33,29.96,10.0,North,9.2,-,N/A,,Clear,10,2013-05-15 21:53:00
4:53 PM,64.9,36.0,34,29.94,10.0,North,13.8,-,N/A,,Clear,10,2013-05-15 22:53:00
5:53 PM,66.9,36.0,32,29.91,10.0,NNE,12.7,-,N/A,,Clear,20,2013-05-15 23:53:00
6:53 PM,66.0,36.0,33,29.91,10.0,North,12.7,-,N/A,,Clear,360,2013-05-16 00:53:00
7:53 PM,63.0,35.1,35,29.90,10.0,North,13.8,19.6,N/A,,Clear,10,2013-05-16 01:53:00
8:53 PM,59.0,35.1,41,29.91,10.0,North,9.2,-,N/A,,Clear,10,2013-05-16 02:53:00
9:53 PM,57.0,33.1,40,29.91,10.0,North,5.8,-,N/A,,Partly Cloudy,350,2013-05-16 03:53:00
10:53 PM,54.0,36.0,51,29.93,10.0,ENE,5.8,-,N/A,,Scattered Clouds,70,2013-05-16 04:53:00
11:53 PM,50.0,37.0,61,29.92,10.0,Calm,Calm,-,N/A,,Mostly Cloudy,0,2013-05-16 05:53:00